Volver al catálogo

NOAA 16 DEB

ActivoSSO
NORAD 41516·DEBRIS·🇺🇸 United States

Lanzado Sep 21, 2000 desde Vandenberg Space Force Base

Loading…

Próximos Pases (próximas 24 horas)

TLE

ActualizadoSource: Space-Track

Época: Sep 14, 2026, 11:27 UTC

1 41516U 00055MQ  26257.47735272  .00003089  00000-0  10627-2 0  9994
2 41516  98.6692 347.0818 0011968 236.6742 123.3298 14.36697132539462

Sigue NOAA 16 DEB en tiempo real con AllMySat

Download on the App Store